Regional Weather Roundup
Issued by NWS

Home | Current Version | Previous Version | Graphics & Text | Print | Product List | Glossary On
Versions: 1 2 3 4 5 6 7 8 9 10 11 12 13 14 15 16 17 18 19 20 21 22 23 24 25 26 27 28 29 30 31 32 33 34 35 36 37 38 39 40 41 42 43 44 45 46 47 48 49 50
000
ASUS43 KOAX 061802
RWRNE

WEATHER ROUNDUP FOR NEBRASKA
NATIONAL WEATHER SERVICE OMAHA NE
100 PM CDT MON JUL 06 2015

NOTES: SATELLITE DATA IS BEING USED TO AUGMENT CLOUD COVER ABOVE
       12000 FEET.
       "FAIR" INDICATES FEW OR NO CLOUDS BELOW 12,000 FEET WITH NO
       SIGNIFICANT WEATHER AND/OR OBSTRUCTIONS TO VISIBILITY.

  * THESE STATIONS DO NOT REPORT WEATHER SUCH AS RAIN...SNOW OR FOG.

NEZ001>004-019>022-054>056-061900-
NEBRASKA PANHANDLE

CITY           SKY/WX    TMP DP  RH WIND       PRES   REMARKS
SCOTTSBLUFF    CLOUDY    66  53  63 N10       30.26R HAZE
6HR MIN TEMP:  59; 6HR MAX TEMP:  66;

ALLIANCE       PTSUNNY   67  55  65 N17       30.23R HAZE
6HR MIN TEMP:  58; 6HR MAX TEMP:  67;

CHADRON        CLOUDY    67  56  67 N8        30.24F HAZE
6HR MIN TEMP:  59; 6HR MAX TEMP:  67;

KIMBALL          N/A    N/A N/A N/A MISG        N/A
SIDNEY         CLOUDY    67  54  63 N17G24    30.24R HAZE
6HR MIN TEMP:  59; 6HR MAX TEMP:  67;

$$

NEZ057>060-069>072-079>082-061900-
SOUTHWEST NEBRASKA

CITY           SKY/WX    TMP DP  RH WIND       PRES   REMARKS
NORTH PLATTE   CLOUDY    71  57  61 NE14G24   30.13R
6HR MIN TEMP:  65; 6HR MAX TEMP:  72; 6HR PCP: TRACE;

IMPERIAL       CLOUDY    71  56  58 N17       30.16R
6HR MIN TEMP:  64; 6HR MAX TEMP:  71;

MCCOOK         CLOUDY    70  60  70 N24G33    30.09R
6HR MIN TEMP:  67; 6HR MAX TEMP:  72; 6HR PCP: TRACE;

$$

NEZ005>010-023>029-035>040-094-061900-
NORTH CENTRAL NEBRASKA

CITY           SKY/WX    TMP DP  RH WIND       PRES   REMARKS
VALENTINE      CLOUDY    72  54  53 N17G28    30.15S HAZE
6HR MIN TEMP:  62; 6HR MAX TEMP:  72;

AINSWORTH        N/A     72  57  59 N21G30    30.14S HAZE
BROKEN BOW     MOSUNNY   74  60  61 N18G26    30.08S HAZE
6HR MIN TEMP:  66; 6HR MAX TEMP:  74; 6HR PCP:  0.05;

ORD            PTSUNNY   74  58  57 N21G28    30.05R HAZE
6HR MIN TEMP:  66; 6HR MAX TEMP:  74; 6HR PCP:  0.05;

$$

NEZ041-046>049-061>064-073>077-083>087-061900-
SOUTH CENTRAL NEBRASKA

CITY           SKY/WX    TMP DP  RH WIND       PRES   REMARKS
GRAND ISLAND   CLOUDY    73  64  73 N17       30.01R
6HR MIN TEMP:  69; 6HR MAX TEMP:  73; 6HR PCP:  0.01;

AURORA         CLOUDY    73  67  82 N23       29.99S
HASTINGS       CLOUDY    72  65  78 N18G24    29.99S
6HR MIN TEMP:  69; 6HR MAX TEMP:  72; 6HR PCP:  0.10;

KEARNEY *      CLOUDY    70  61  73 N21G31    30.04R
$$

NEZ011>018-030>034-042>045-061900-
NORTHEAST NEBRASKA

CITY           SKY/WX    TMP DP  RH WIND       PRES   REMARKS
NORFOLK        CLOUDY    74  65  73 N17G26    29.99R
6HR MIN TEMP:  68; 6HR MAX TEMP:  74; 6HR PCP:  0.19;

BLAIR          CLOUDY    76  69  79 NW5       29.92S
FREMONT        CLOUDY    77  69  76 NW21      29.93S
TEKAMAH        CLOUDY    77  70  79 NW8       29.91S
6HR MIN TEMP:  72; 6HR MAX TEMP:  77; 6HR PCP:  0.02;

$$

NEZ050>053-065>068-078-088>093-061900-
SOUTHEAST NEBRASKA

CITY           SKY/WX    TMP DP  RH WIND       PRES   REMARKS
LINCOLN        CLOUDY    75  72  90 N10       29.93S
6HR MIN TEMP:  73; 6HR MAX TEMP:  77; 6HR PCP:  0.05;

OMAHA EPPLEY   LGT RAIN  75  73  93 N6        29.91R FOG
6HR MIN TEMP:  72; 6HR MAX TEMP:  76; 6HR PCP:  0.17;

FALLS CITY     CLOUDY    85  73  67 SW7       29.86S HX  91
6HR MIN TEMP:  77; 6HR MAX TEMP:  86;

$$

NEZ044-045-051>053-067-061900-
OMAHA AREA

CITY           SKY/WX    TMP DP  RH WIND       PRES   REMARKS
OMAHA EPPLEY   LGT RAIN  75  73  93 N6        29.91R FOG
6HR MIN TEMP:  72; 6HR MAX TEMP:  76; 6HR PCP:  0.17;

BLAIR          CLOUDY    76  69  79 NW5       29.92S
FREMONT        CLOUDY    77  69  76 NW21      29.93S
$$


USA.gov is the U.S. government's official web portal to all federal, state and local government web resources and services.